Regional Weather Roundup
Issued by NWS Nashville, TN

Home | Current Version | Previous Version | Text Only | Print | Product List | Glossary On
Versions: 1 2 3 4 5 6 7 8 9 10 11 12 13 14 15 16 17 18 19 20 21 22 23 24 25 26 27 28 29 30 31 32 33 34 35 36 37 38 39 40 41 42 43 44 45 46 47 48 49 50
000
ASUS44 KOHX 211915
RWROHX
MIDDLE TENNESSEE HOURLY WEATHER ROUNDUP
NATIONAL WEATHER SERVICE NASHVILLE TN
100 PM CST FRI NOV 21 2014

NOTE: "FAIR" INDICATES FEW OR NO CLOUDS BELOW 12,000 FEET WITH
NO SIGNIFICANT WEATHER AND/OR OBSTRUCTIONS TO VISIBILITY.

* THESE REPORTS ARE NOT UNDER NWS QUALITY CONTROL AND MAY NOT
  REPORT WEATHER SUCH AS PRECIPITATION AND FOG.


TNZ005>011-023>034-057-059-062>066-078-080-212000
...NORTHERN MIDDLE TENNESSEE...

CITY           SKY/WX    TMP DP  RH WIND       PRES   REMARKS
CLARKSVILLE    SUNNY     48  23  37 SE9       30.40F
CROSSVILLE     SUNNY     50  14  23 NE3       30.38F
GALLATIN         N/A     47  21  35 SE5       30.42F
DICKSON        SUNNY     50  21  32 SE7       30.37F
LEBANON        SUNNY     47  17  30 VRB3      30.40
LIVINGSTON     SUNNY     59   9  14 NE8       30.40F
NASHVILLE      MOSUNNY   50  21  32 E5        30.41F
WEST NASHVILLE   N/A     46  19  34 NE5       30.41F
PORTLAND         N/A     45  18  33 VRB7      30.40F
SMYRNA         SUNNY     52  22  31 CALM      30.42F
SPARTA         SUNNY     54  19  26 VRB3      30.39F
$$
TNZ056-058-060-061-075>077-079-093>097-212000
...SOUTHERN MIDDLE TENNESSEE...

CITY           SKY/WX    TMP DP  RH WIND       PRES   REMARKS
COLUMBIA       CLOUDY    54  28  37 VRB6      30.36F
LEWISBURG      SUNNY     54  25  32 E5        30.38F
MCMINNVILLE    SUNNY     52  21  30 CALM      30.38F
MURFREESBORO   SUNNY     51  22  32 CALM      30.40F
SHELBYVILLE    SUNNY     55  27  33 CALM      30.39F
TULLAHOMA      SUNNY     55  23  28 VRB3      30.38F
WINCHESTER     SUNNY     57  30  35 CALM      30.37F
$$


...KEY TO REMARKS...
VSB - VISIBILITY IN MILES
WCI - WIND CHILL INDEX
HX  - HEAT INDEX




USA.gov is the U.S. government's official web portal to all federal, state and local government web resources and services.